[[{"header":{"parameterUnit":"m.s-1","parameterCategory":1,"la1":30.2991,"la2":30.254,"lo1":-89.0895,"lo2":-89.0444,"dy":0.0017,"dx":0.0017,"nx":28,"ny":28,"refTime":"2025-01-21T03:00:00:Z","depth":0,"parameterNumber":2,"parameterNumberName":"U-component_of_WINDS"},"data":[0,0,0,0,0,0,0,0,0,0,0,0,0,0,0,0,0,0,0,0,0,0,0,0,0,0,0,0,0,0,0,0,0,0,0,0,0,0,0,0,0,0,0,0,0,0,0,0,0,0,0,0,0,0,0,0,0,0,-2.3734,-2.3734,0,-2.3747,-2.3747,-2.3747,-2.3668,-2.3665,-2.3663,-2.3661,-2.3677,-2.3679,-2.3682,0,0,0,0,0,0,0,0,0,0,0,0,0,-2.3641,-2.3644,-2.3734,-2.3734,-2.3734,-2.3747,-2.3747,-2.3747,-2.3668,-2.3665,-2.3663,-2.366,-2.3676,-2.3679,-2.3682,0,0,0,0,0,0,0,0,0,0,0,0,0,-2.3671,-2.3644,-2.3734,-2.3696,-2.3693,-2.3747,-2.3747,-2.3747,-2.3669,-2.3665,-2.3662,-2.3659,-2.3675,-2.3679,-2.3683,-2.3774,0,0,-2.3694,-2.3696,0,0,0,0,0,0,0,0,-2.3669,-2.3674,-2.3701,-2.3699,-2.3695,-2.3702,-2.372,-2.3756,-2.367,-2.3678,-2.3661,-2.3657,-2.3688,-2.3691,-2.3701,-2.3775,-2.3775,-2.3694,-2.3697,-2.3698,-2.3699,0,0,0,0,0,0,0,-2.3667,-2.3673,-2.3739,-2.3702,-2.3698,-2.3679,-2.3679,-2.3727,-2.3702,-2.3677,-2.3671,-2.3674,-2.3686,-2.3697,-2.37,-2.3776,-2.3694,-2.3698,-2.37,-2.3702,-2.3924,-2.3927,0,0,0,0,0,0,-2.367,-2.3672,-2.3739,-2.3739,-2.3674,-2.3683,-2.3684,-2.3703,-2.3701,-2.3698,-2.3677,-2.367,-2.3692,-2.3696,-2.3701,-2.3807,-2.3698,-2.3702,-2.3704,-2.392,-2.3924,-2.3928,0,0,0,0,0,0,-2.3668,-2.3677,-2.3738,-2.3704,-2.371,-2.3689,-2.3711,-2.3705,-2.3717,-2.3701,-2.3696,-2.3693,-2.369,-2.3695,-2.3756,-2.3806,-2.3704,-2.3707,-2.3916,-2.3921,-2.3926,-2.402,0,0,0,0,0,0,-2.3666,-2.3677,-2.3711,-2.3706,-2.3713,-2.3793,-2.3714,-2.3708,-2.3723,-2.3715,-2.3715,-2.3712,-2.3688,-2.3751,-2.376,-2.3809,-2.371,-2.3911,-2.3918,-2.3925,-2.4012,-2.4028,-2.4041,0,0,0,0,0,-2.3663,-2.3738,-2.3713,-2.3722,-2.3755,-2.3796,-2.38,-2.377,-2.3728,-2.3762,-2.3752,-2.3712,-2.3799,-2.3757,-2.3767,-2.3819,-2.3908,-2.3916,-2.3924,-2.4006,-2.4025,-2.4041,0,0,0,0,0,0,-2.3752,-2.3737,-2.3709,-2.3784,-2.3792,-2.3783,-2.3825,-2.3792,-2.3812,-2.3804,-2.3766,-2.3767,-2.3834,-2.3832,-2.3786,-2.3906,-2.3846,-2.3856,-2.3905,-2.3923,-2.3937,-2.3936,-2.3713,0,0,0,0,0,-2.378,-2.3814,-2.3799,-2.3867,-2.3872,-2.3848,-2.3865,-2.3841,-2.3847,-2.3851,-2.3845,-2.3853,-2.3882,-2.3902,-2.3928,-2.4011,-2.401,-2.4052,-2.4066,-2.4078,-2.4088,-2.413,-2.4148,-2.3955,-2.3955,-2.3955,0,0,-2.3839,-2.3834,-2.3858,-2.3884,-2.3887,-2.3923,-2.3851,-2.3893,-2.3919,-2.3857,-2.3913,-2.3909,-2.3916,-2.3988,-2.4019,-2.3989,-2.4141,-2.4089,-2.4098,-2.4101,-2.4141,-2.4159,-2.4175,-2.396,-2.3959,-2.3959,0,0,-2.3964,-2.3965,-2.402,-2.4024,-2.4029,-2.4012,-2.4026,-2.4021,-2.4016,-2.4071,-2.4025,-2.4056,-2.4107,-2.4113,-2.4124,-2.4249,-2.4213,-2.4259,-2.4335,-2.4377,-2.4392,-2.4405,-2.445,-2.4466,-2.4268,-2.4268,-2.4269,0,-2.4037,-2.4089,-2.4054,-2.4098,-2.411,-2.4054,-2.411,-2.4116,-2.4129,-2.4139,-2.4105,-2.4166,-2.4167,-2.4239,-2.427,-2.428,-2.4294,-2.4259,-2.4392,-2.4405,-2.4417,-2.4459,-2.4476,-2.4274,-2.4273,-2.4273,-2.4272,0,-2.4177,-2.4214,-2.4259,-2.4272,-2.4289,-2.4339,-2.4312,-2.4333,-2.4307,-2.4295,-2.4351,-2.435,-2.4374,-2.4389,-2.4365,-2.4458,-2.4438,-2.4399,-2.4337,-2.4442,-2.4481,-2.4496,-2.4282,-2.428,-2.4278,-2.4277,0,0,-2.4361,-2.4352,-2.4369,-2.4373,-2.4373,-2.4401,-2.4448,-2.4471,-2.449,-2.4501,-2.4539,-2.4583,-2.4546,-2.4557,-2.4533,-2.457,-2.4668,-2.4525,-2.4525,-2.4552,-2.4769,-2.4799,-2.4818,-2.4644,-2.4647,-2.4649,-2.4768,0,-2.4483,-2.4562,-2.4531,-2.4613,-2.4646,-2.4591,-2.4632,-2.4637,-2.4626,-2.4652,-2.464,-2.4671,-2.462,-2.4626,-2.466,-2.4649,-2.4712,-2.464,-2.468,-2.4681,-2.468,-2.4838,-2.487,-2.4983,-2.4783,-2.4786,-2.4788,0,-2.4636,-2.4652,-2.4737,-2.4729,-2.4742,-2.4779,-2.4796,-2.4822,-2.4826,-2.4815,-2.4827,-2.4794,-2.484,-2.4778,-2.484,-2.4792,-2.4806,-2.4803,-2.4807,-2.4809,-2.4741,-2.4845,-2.5018,-2.5035,-2.4811,-2.4809,-2.4808,0,-2.4761,-2.4803,-2.4858,-2.4864,-2.4857,-2.4884,-2.4883,-2.4883,-2.4898,-2.4913,-2.4922,-2.4943,-2.4955,-2.4972,-2.4945,-2.4903,-2.5011,-2.4947,-2.5003,-2.5004,-2.5029,-2.5028,-2.5206,-2.5038,-2.5038,-2.5037,-2.5037,0,-2.4901,-2.4955,-2.4914,-2.4949,-2.5007,-2.497,-2.5029,-2.5022,-2.5022,-2.5054,-2.5009,-2.504,-2.5003,-2.5031,-2.501,-2.5064,-2.507,-2.5063,-2.5057,-2.5067,-2.5068,-2.5076,-2.5067,-2.5042,-2.5041,-2.504,-2.5039,0,-2.505,-2.5025,-2.5082,-2.507,-2.5068,-2.5112,-2.5102,-2.5133,-2.5117,-2.5159,-2.5166,-2.5143,-2.5172,-2.5147,-2.5177,-2.5163,-2.5234,-2.5217,-2.5233,-2.5228,-2.5285,-2.528,-2.5476,-2.5499,-2.5316,-2.5318,-2.5319,0,-2.5141,-2.5181,-2.5173,-2.519,-2.5191,-2.522,-2.5234,-2.5199,-2.5216,-2.5222,-2.5253,-2.5278,-2.5297,-2.5348,-2.5333,-2.5355,-2.5338,-2.5405,-2.5341,-2.535,-2.5339,-2.5337,-2.534,-2.5418,-2.5421,-2.5422,-2.5424,0,-2.5305,-2.529,-2.5312,-2.5329,-2.5347,-2.5359,-2.5368,-2.5385,-2.5349,-2.537,-2.5399,-2.5414,-2.5443,-2.5469,-2.5486,-2.5484,-2.5449,-2.5444,-2.5458,-2.5469,-2.5476,-2.5472,-2.5268,-2.544,-2.5438,-2.5437,-2.5436,-2.5435,-2.5428,-2.546,-2.5458,-2.5484,-2.5486,-2.5495,-2.5523,-2.551,-2.5534,-2.5554,-2.5532,-2.5567,-2.5569,-2.5587,-2.559,-2.5617,-2.559,-2.561,-2.5615,-2.5621,-2.5629,-2.5471,-2.5621,-2.562,-2.562,-2.5619,-2.5619,0,-2.5589,-2.5584,-2.5608,-2.5621,-2.5641,-2.5603,-2.561,-2.563,-2.5661,-2.5665,-2.5683,-2.5716,-2.5741,-2.5728,-2.5749,-2.5773,-2.5757,-2.578,-2.5778,-2.5778,-2.5653,-2.5638,-2.5793,-2.5793,-2.5793,-2.5793,-2.5793,-2.5792,-2.5675,-2.5727,-2.5712,-2.5764,-2.576,-2.5793,-2.58,-2.5808,-2.581,-2.5849,-2.5868,-2.5859,-2.5856,-2.5876,-2.5897,-2.5892,-2.5902,-2.5931,-2.5921,-2.5804,-2.5787,-2.5771,-2.5757,-2.5934,-2.5934,-2.6044,-2.6045,-2.6045]},{"header":{"parameterUnit":"m.s-1","parameterCategory":1,"la1":30.2991,"la2":30.254,"lo1":-89.0895,"lo2":-89.0444,"dy":0.0017,"dx":0.0017,"nx":28,"ny":28,"refTime":"2025-01-21T03:00:00:Z","depth":0,"parameterNumber":3,"parameterNumberName":"V-component_of_WINDS"},"data":[0,0,0,0,0,0,0,0,0,0,0,0,0,0,0,0,0,0,0,0,0,0,0,0,0,0,0,0,0,0,0,0,0,0,0,0,0,0,0,0,0,0,0,0,0,0,0,0,0,0,0,0,0,0,0,0,0,0,-4.8476,-4.8476,0,-4.8527,-4.8528,-4.8528,-4.8438,-4.8435,-4.8432,-4.8429,-4.8479,-4.8483,-4.8487,0,0,0,0,0,0,0,0,0,0,0,0,0,-4.8294,-4.8298,-4.8476,-4.8476,-4.8477,-4.8527,-4.8528,-4.8529,-4.8438,-4.8435,-4.8431,-4.8427,-4.8477,-4.8482,-4.8487,0,0,0,0,0,0,0,0,0,0,0,0,0,-4.8362,-4.8299,-4.8475,-4.8438,-4.8435,-4.8527,-4.8528,-4.8529,-4.8439,-4.8435,-4.843,-4.8426,-4.8476,-4.8482,-4.8488,-4.8618,0,0,-4.8507,-4.851,0,0,0,0,0,0,0,0,-4.8359,-4.8369,-4.8443,-4.8441,-4.8438,-4.8471,-4.8482,-4.8559,-4.844,-4.8438,-4.8429,-4.8423,-4.848,-4.8485,-4.8505,-4.862,-4.8622,-4.8508,-4.8511,-4.8514,-4.8516,0,0,0,0,0,0,0,-4.8354,-4.8366,-4.8496,-4.8444,-4.8441,-4.8417,-4.8422,-4.8496,-4.8484,-4.8437,-4.8431,-4.8438,-4.8477,-4.8499,-4.8506,-4.8623,-4.8507,-4.8513,-4.8517,-4.8519,-4.8845,-4.8849,0,0,0,0,0,0,-4.8354,-4.8363,-4.8494,-4.8497,-4.8386,-4.8424,-4.8429,-4.8465,-4.8482,-4.8481,-4.8442,-4.8434,-4.8491,-4.8498,-4.8507,-4.8658,-4.8514,-4.852,-4.8523,-4.884,-4.8846,-4.8851,0,0,0,0,0,0,-4.8351,-4.8367,-4.8492,-4.8428,-4.8443,-4.8432,-4.8473,-4.8469,-4.849,-4.8486,-4.8483,-4.8467,-4.8487,-4.8498,-4.8591,-4.8659,-4.8523,-4.8528,-4.8834,-4.8842,-4.8849,-4.8964,0,0,0,0,0,0,-4.8346,-4.8366,-4.8417,-4.843,-4.8446,-4.8577,-4.8477,-4.8473,-4.8502,-4.8491,-4.8509,-4.8507,-4.8485,-4.8582,-4.8597,-4.8665,-4.8533,-4.8828,-4.8838,-4.8846,-4.8954,-4.8974,-4.8992,0,0,0,0,0,-4.834,-4.8447,-4.842,-4.8436,-4.8509,-4.8581,-4.859,-4.8563,-4.8508,-4.8557,-4.8554,-4.8507,-4.8649,-4.8592,-4.8608,-4.8679,-4.8824,-4.8835,-4.8846,-4.8945,-4.897,-4.8991,0,0,0,0,0,0,-4.8441,-4.8448,-4.8418,-4.8533,-4.8557,-4.8565,-4.8627,-4.859,-4.863,-4.8618,-4.8582,-4.8587,-4.8686,-4.8692,-4.8628,-4.8805,-4.8727,-4.8742,-4.8797,-4.8821,-4.8839,-4.8835,-4.8538,0,0,0,0,0,-4.8477,-4.8535,-4.8538,-4.8639,-4.8653,-4.8638,-4.8668,-4.8645,-4.8668,-4.8678,-4.8682,-4.8705,-4.8755,-4.8788,-4.8834,-4.8955,-4.8956,-4.9011,-4.903,-4.9046,-4.9059,-4.9121,-4.9145,-4.8887,-4.8887,-4.8887,0,0,-4.8551,-4.8562,-4.8601,-4.8659,-4.8675,-4.8735,-4.8647,-4.8715,-4.8758,-4.8688,-4.8775,-4.8779,-4.8802,-4.8909,-4.8956,-4.8917,-4.913,-4.906,-4.9072,-4.9077,-4.9134,-4.9159,-4.9181,-4.8895,-4.8894,-4.8892,0,0,-4.8716,-4.8732,-4.8817,-4.8834,-4.886,-4.8849,-4.887,-4.8884,-4.8884,-4.8971,-4.8919,-4.8969,-4.9057,-4.9075,-4.9095,-4.9267,-4.9223,-4.9283,-4.9381,-4.9442,-4.9462,-4.948,-4.9539,-4.9561,-4.9296,-4.9296,-4.9296,0,-4.8805,-4.8894,-4.8865,-4.8936,-4.8962,-4.8901,-4.8986,-4.9004,-4.9043,-4.9062,-4.9018,-4.9125,-4.9136,-4.9246,-4.9287,-4.9307,-4.9327,-4.928,-4.9462,-4.9479,-4.9495,-4.9552,-4.9574,-4.9303,-4.9302,-4.9301,-4.9301,0,-4.9001,-4.9064,-4.9129,-4.9169,-4.9202,-4.928,-4.926,-4.9298,-4.9272,-4.9266,-4.9354,-4.9366,-4.9412,-4.9436,-4.9412,-4.9542,-4.9516,-4.9468,-4.9389,-4.9527,-4.9579,-4.9601,-4.9313,-4.931,-4.9308,-4.9306,0,0,-4.9232,-4.9253,-4.9278,-4.9294,-4.9317,-4.9364,-4.9438,-4.9484,-4.9516,-4.9545,-4.9605,-4.9679,-4.9634,-4.9658,-4.9634,-4.9688,-4.9821,-4.9632,-4.9632,-4.9666,-4.9962,-4.9998,-5.0023,-4.9793,-4.9797,-4.98,-4.996,0,-4.9395,-4.9523,-4.9498,-4.9623,-4.9679,-4.9622,-4.9686,-4.9706,-4.9702,-4.9748,-4.9743,-4.9796,-4.9733,-4.9747,-4.9798,-4.9794,-4.9879,-4.9782,-4.9846,-4.9849,-4.9841,-5.0051,-5.0089,-5.0239,-4.998,-4.9984,-4.9986,0,-4.9602,-4.9639,-4.977,-4.9783,-4.9805,-4.9864,-4.9903,-4.9948,-4.9969,-4.9962,-4.9989,-4.9954,-5.0026,-4.9947,-5.0044,-4.9978,-5.0002,-5.0004,-5.0009,-5.0013,-4.9925,-5.0059,-5.0287,-5.0309,-5.0018,-5.0016,-5.0013,0,-4.9755,-4.9837,-4.9926,-4.9942,-4.996,-5.0001,-5.001,-5.0027,-5.0056,-5.009,-5.0107,-5.0149,-5.0172,-5.0204,-5.0181,-5.0126,-5.0281,-5.0201,-5.0276,-5.0277,-5.031,-5.0308,-5.0544,-5.0329,-5.0329,-5.0328,-5.0328,0,-4.9939,-5.0021,-4.9994,-5.0049,-5.0138,-5.0108,-5.0196,-5.0198,-5.0214,-5.0266,-5.0219,-5.0269,-5.0237,-5.0283,-5.0266,-5.0348,-5.0359,-5.0354,-5.0348,-5.0357,-5.0358,-5.0372,-5.036,-5.0334,-5.0333,-5.0332,-5.0331,0,-5.0125,-5.0111,-5.0203,-5.0212,-5.0216,-5.0281,-5.0288,-5.0337,-5.033,-5.0396,-5.041,-5.0398,-5.045,-5.0431,-5.0487,-5.0475,-5.0579,-5.056,-5.0572,-5.0567,-5.0643,-5.0635,-5.0895,-5.0926,-5.0692,-5.0695,-5.0697,0,-5.0242,-5.0304,-5.032,-5.0352,-5.0364,-5.0417,-5.0446,-5.0418,-5.0449,-5.0477,-5.0523,-5.0572,-5.0609,-5.0695,-5.069,-5.0732,-5.0713,-5.0801,-5.0719,-5.0726,-5.0712,-5.0708,-5.0713,-5.0817,-5.082,-5.0822,-5.0824,0,-5.0452,-5.0442,-5.0486,-5.0528,-5.0564,-5.0595,-5.0622,-5.0651,-5.0624,-5.0662,-5.0715,-5.0744,-5.0801,-5.0849,-5.0887,-5.0894,-5.0854,-5.085,-5.0869,-5.0879,-5.0882,-5.088,-5.0615,-5.0844,-5.0842,-5.084,-5.0839,-5.0838,-5.0606,-5.0657,-5.0676,-5.0726,-5.0744,-5.077,-5.0816,-5.0815,-5.0859,-5.0904,-5.0884,-5.0945,-5.0963,-5.1009,-5.1022,-5.1068,-5.1034,-5.1063,-5.1069,-5.1076,-5.1086,-5.0876,-5.1075,-5.1075,-5.1074,-5.1074,-5.1073,0,-5.0812,-5.0821,-5.0868,-5.0907,-5.0946,-5.0906,-5.0934,-5.0969,-5.1023,-5.1044,-5.1081,-5.1142,-5.1188,-5.1187,-5.1229,-5.1266,-5.1249,-5.1278,-5.1274,-5.1276,-5.1115,-5.1093,-5.1291,-5.1291,-5.1291,-5.1291,-5.1291,-5.1291,-5.0923,-5.1008,-5.1,-5.1091,-5.1099,-5.116,-5.1178,-5.1201,-5.1217,-5.1287,-5.1326,-5.1325,-5.1336,-5.1378,-5.1418,-5.1416,-5.1433,-5.1469,-5.146,-5.1309,-5.1288,-5.1267,-5.1246,-5.1474,-5.1474,-5.1618,-5.1619,-5.162]}]]